Location: Stuttgart
(48.8069°N, 9.1544°E)
Time: 12:46:08
(UTC+02:00)

ISS - Pass Details

Date: 10 February 2018
Orbit: 403 x 408 km, 51.6° (Epoch: 22 September)

Event Time Altitude Azimuth Distance (km) Brightness Sun altitude
Rises 18:39:42 0° 290° (WNW) 2,323 1.2 -11.0°
Reaches altitude 10° 18:41:50 10° 283° (WNW) 1,461 0.2 -11.3°
Maximum altitude 18:44:56 41° 211° (SSW) 597 -2.7 -11.8°
Drops below altitude 10° 18:48:03 10° 140° (SE) 1,461 -1.3 -12.3°
Enters shadow 18:48:26 - 138° (SE) 1,608 -1.1 -12.4°
